Main page
Satellite images Climate Cyclones Lightning AirportsFAQ Languages Contact Newsletter About
Weather : Europe Africa North America South America Asia Australia-Oceania Others

macau-cn, Macau, Macau International Airport

45005

latitude: , longitude: China, elevation: 22-10N m


METAR: VMMC 221700Z 15004KT 6000 FEW004 SCT018 23/23 Q1014 TEMPO 4000 BR